TimeCDT,TemperatureF,Dew PointF,Humidity,Sea Level PressureIn,VisibilityMPH,Wind Direction,Wind SpeedMPH,Gust SpeedMPH,PrecipitationIn,Events,Conditions,WindDirDegrees,DateUTC
12:53 AM,66.9,52.0,59,29.42,10.0,South,11.5,21.9,N/A,,Clear,190,2012-10-17 05:53:00
1:53 AM,64.9,52.0,63,29.41,10.0,South,10.4,-,N/A,,Clear,190,2012-10-17 06:53:00
2:53 AM,62.1,53.1,72,29.40,10.0,SSW,9.2,-,N/A,,Clear,200,2012-10-17 07:53:00
3:53 AM,63.0,54.0,72,29.37,10.0,SSW,12.7,-,N/A,,Clear,210,2012-10-17 08:53:00
4:53 AM,64.0,54.0,70,29.37,10.0,SSW,16.1,-,N/A,,Scattered Clouds,200,2012-10-17 09:53:00
5:53 AM,64.0,55.0,73,29.39,10.0,WSW,8.1,-,N/A,,Mostly Cloudy,240,2012-10-17 10:53:00
6:53 AM,64.0,55.0,73,29.42,10.0,West,6.9,-,N/A,,Mostly Cloudy,260,2012-10-17 11:53:00
7:53 AM,64.0,48.0,56,29.42,10.0,NW,15.0,20.7,N/A,,Overcast,320,2012-10-17 12:53:00
8:53 AM,63.0,46.9,56,29.47,10.0,NW,13.8,25.3,N/A,,Mostly Cloudy,310,2012-10-17 13:53:00
9:53 AM,55.9,50.0,80,29.50,10.0,NW,11.5,25.3,0.01,Rain,Light Rain,320,2012-10-17 14:53:00
10:53 AM,55.9,51.1,84,29.54,10.0,Calm,Calm,-,0.01,,Overcast,0,2012-10-17 15:53:00
11:53 AM,57.9,51.1,78,29.51,10.0,NW,8.1,-,0.00,,Partly Cloudy,310,2012-10-17 16:53:00
12:53 PM,61.0,39.0,44,29.51,10.0,NW,15.0,24.2,N/A,,Clear,310,2012-10-17 17:53:00
1:53 PM,64.9,35.1,33,29.49,10.0,NW,19.6,34.5,N/A,,Clear,310,2012-10-17 18:53:00
2:53 PM,64.0,36.0,35,29.49,10.0,NW,19.6,32.2,N/A,,Clear,310,2012-10-17 19:53:00
3:53 PM,62.1,35.1,37,29.51,10.0,NW,19.6,33.4,N/A,,Partly Cloudy,310,2012-10-17 20:53:00
4:53 PM,62.1,35.1,37,29.54,10.0,NW,20.7,34.5,N/A,,Scattered Clouds,320,2012-10-17 21:53:00
5:53 PM,59.0,33.1,38,29.56,10.0,WNW,12.7,21.9,N/A,,Partly Cloudy,300,2012-10-17 22:53:00
6:53 PM,54.0,32.0,43,29.59,10.0,WNW,8.1,-,N/A,,Clear,290,2012-10-17 23:53:00
7:53 PM,57.9,23.0,26,29.61,10.0,WNW,12.7,24.2,N/A,,Mostly Cloudy,300,2012-10-18 00:53:00
8:53 PM,55.9,23.0,28,29.62,10.0,WNW,11.5,-,N/A,,Overcast,290,2012-10-18 01:53:00
9:53 PM,54.0,24.1,31,29.63,10.0,West,10.4,-,N/A,,Scattered Clouds,270,2012-10-18 02:53:00
10:53 PM,51.1,25.0,36,29.63,10.0,West,12.7,-,N/A,,Clear,260,2012-10-18 03:53:00
11:53 PM,50.0,25.0,38,29.62,10.0,West,16.1,-,N/A,,Clear,270,2012-10-18 04:53:00